FW3932 Weather Reports


time (UTC)temp
C
wind
direction
speed
KPH
gust
KPH
rain 1hr
cm
rain 24hr
cm
rain mn
cm
humidity
%
barometer
mb
20260506201503 21 350 3.2 11.3 0.00 0.00 0.00 59 1019.6
20260506201004 21 350 1.6 14.5 0.00 0.00 0.00 59 1019.8
20260506200503 21 288 8.0 14.5 0.00 0.00 0.00 60 1019.7
20260506200023 21 51 1.6 14.5 0.00 0.00 0.00 61 1019.8
20260506195503 21 294 6.4 14.5 0.00 0.00 0.00 60 1019.8
20260506195004 20 286 3.2 14.5 0.00 0.00 0.00 63 1019.9
20260506194518 20 287 4.8 19.3 0.00 0.00 0.00 63 1020.0
20260506194006 20 292 11.3 19.3 0.00 0.00 0.00 63 1020.0
20260506193505 20 341 1.6 6.4 0.00 0.00 0.00 65 1020.0
20260506193016 19 213 0.0 14.5 0.00 0.00 0.00 64 1020.1
20260506192502 20 12 3.2 14.5 0.00 0.00 0.00 64 1020.1
20260506192006 20 263 4.8 11.3 0.00 0.00 0.00 62 1020.2
20260506191514 20 30 1.6 9.7 0.00 0.00 0.00 60 1020.2
20260506191004 20 317 4.8 9.7 0.00 0.00 0.00 61 1020.2
20260506190507 20 335 1.6 12.9 0.00 0.00 0.00 63 1020.2
20260506190011 20 261 1.6 12.9 0.00 0.00 0.00 61 1020.2
20260506185505 21 298 1.6 12.9 0.00 0.00 0.00 62 1020.2
20260506185007 20 300 1.6 11.3 0.00 0.00 0.00 67 1020.1
20260506184508 19 158 3.2 11.3 0.00 0.00 0.00 66 1020.1
20260506184003 18 181 1.6 9.7 0.00 0.00 0.00 67 1020.3
20260506183505 18 213 1.6 4.8 0.00 0.00 0.00 66 1020.3
20260506183008 18 188 1.6 6.4 0.00 0.00 0.00 68 1020.3
20260506182504 18 28 0.0 11.3 0.00 0.00 0.00 65 1020.3
20260506182005 18 321 4.8 11.3 0.00 0.00 0.00 65 1020.4
20260506181524 18 351 0.0 6.4 0.00 0.00 0.00 69 1020.4
20260506181006 17 305 0.0 8.0 0.00 0.00 0.00 68 1020.3
20260506180502 17 175 3.2 11.3 0.00 0.00 0.00 69 1020.3
20260506180026 18 9 3.2 12.9 0.00 0.00 0.00 66 1020.3
20260506175507 18 300 3.2 12.9 0.00 0.00 0.00 68 1020.3
20260506175003 18 322 4.8 11.3 0.00 0.00 0.00 68 1020.3
20260506174520 18 312 3.2 11.3 0.00 0.00 0.00 69 1020.3
20260506174004 17 352 1.6 8.0 0.00 0.00 0.00 71 1020.4
20260506173512 17 319 1.6 8.0 0.00 0.00 0.00 71 1020.4
20260506173018 17 161 1.6 11.3 0.00 0.00 0.00 70 1020.4
20260506172503 17 293 6.4 11.3 0.00 0.00 0.00 69 1020.4
20260506172009 17 355 1.6 9.7 0.00 0.00 0.00 72 1020.4
20260506171511 16 162 0.0 6.4 0.00 0.00 0.00 75 1020.5
20260506171004 16 281 1.6 8.0 0.00 0.00 0.00 74 1020.5
20260506170509 16 5 3.2 11.3 0.00 0.00 0.00 74 1020.5
20260506170016 16 329 3.2 11.3 0.00 0.00 0.00 72 1020.4
20260506165504 16 330 1.6 12.9 0.00 0.00 0.00 73 1020.5
20260506165007 16 360 3.2 12.9 0.00 0.00 0.00 74 1020.4
20260506164512 16 323 4.8 12.9 0.00 0.00 0.00 74 1020.5
20260506164005 15 297 4.8 11.3 0.00 0.00 0.00 75 1020.5
20260506163504 15 321 4.8 11.3 0.00 0.00 0.00 77 1020.5
20260506163008 15 112 1.6 4.8 0.00 0.00 0.00 78 1020.5
20260506162507 15 200 0.0 3.2 0.00 0.00 0.00 80 1020.6
20260506162008 14 200 0.0 4.8 0.00 0.00 0.00 80 1020.6
20260506161520 14 298 0.0 4.8 0.00 0.00 0.00 78 1020.6
20260506161010 14 251 0.0 3.2 0.00 0.00 0.00 80 1020.7
20260506160508 13 135 0.0 3.2 0.00 0.00 0.00 80 1020.7
20260506160017 13 135 0.0 3.2 0.00 0.00 0.00 81 1020.6
20260506155504 13 342 0.0 6.4 0.00 0.00 0.00 81 1020.7
20260506155015 13 342 1.6 6.4 0.00 0.00 0.00 81 1020.7
20260506154513 13 323 1.6 4.8 0.00 0.00 0.00 82 1020.7
20260506154004 13 323 1.6 4.8 0.00 0.00 0.00 81 1020.7
20260506153506 13 323 0.0 6.4 0.00 0.00 0.00 81 1020.7
20260506153022 13 323 1.6 6.4 0.00 0.00 0.00 81 1020.8
20260506152504 13 331 1.6 4.8 0.00 0.00 0.00 82 1020.8
20260506152007 13 9 0.0 4.8 0.00 0.00 0.00 83 1020.8
20260506151523 12 9 0.0 4.8 0.00 0.00 0.00 83 1020.7
20260506151004 12 311 1.6 4.8 0.00 0.00 0.00 82 1020.7
20260506150505 12 329 0.0 4.8 0.00 0.00 0.00 83 1020.7
20260506150018 12 355 1.6 8.0 0.00 0.00 0.00 83 1020.6
20260506145510 12 304 1.6 8.0 0.00 0.00 0.00 82 1020.5
20260506145004 12 282 3.2 8.0 0.00 0.00 0.00 83 1020.6
20260506144512 12 274 1.6 6.4 0.00 0.00 0.00 83 1020.7
20260506144010 12 304 1.6 4.8 0.00 0.00 0.00 83 1020.6
20260506143504 12 283 1.6 6.4 0.00 0.00 0.00 83 1020.6
20260506143024 12 323 1.6 6.4 0.00 0.00 0.00 83 1020.6
20260506142511 12 317 3.2 6.4 0.00 0.00 0.00 83 1020.5
20260506142007 12 290 1.6 6.4 0.00 0.00 0.00 83 1020.5
20260506141515 12 296 0.0 6.4 0.00 0.00 0.00 83 1020.5
20260506141011 12 344 1.6 6.4 0.00 0.00 0.00 83 1020.4
20260506140504 12 288 1.6 6.4 0.00 0.00 0.00 84 1020.3
20260506140026 12 290 0.0 6.4 0.00 0.00 0.00 85 1020.3
20260506135507 12 308 0.0 4.8 0.00 0.00 0.00 85 1020.2
20260506135009 12 308 1.6 3.2 0.00 0.00 0.00 86 1020.1
20260506134528 11 308 0.0 0.0 0.00 0.00 0.00 86 1020.0
20260506134008 11 308 0.0 0.0 0.00 0.00 0.00 86 1020.1
20260506133507 11 308 0.0 0.0 0.00 0.00 0.00 86 1020.1
20260506133026 11 308 0.0 3.2 0.00 0.00 0.00 86 1020.1
20260506132506 11 308 0.0 3.2 0.00 0.00 0.00 86 1020.1
20260506132008 11 308 1.6 3.2 0.00 0.00 0.00 86 1020.0
20260506131530 11 308 0.0 3.2 0.00 0.00 0.00 86 1019.9
20260506131007 11 308 0.0 1.6 0.00 0.00 0.00 86 1019.9
20260506130507 11 308 0.0 1.6 0.00 0.00 0.00 86 1019.9
20260506130020 11 308 0.0 1.6 0.00 0.00 0.00 86 1019.9
20260506125508 11 308 0.0 1.6 0.00 0.00 0.00 86 1019.7
20260506125009 12 308 0.0 3.2 0.00 0.00 0.00 86 1019.6
20260506124519 12 308 0.0 3.2 0.00 0.00 0.00 85 1019.7
20260506124007 12 308 0.0 3.2 0.00 0.00 0.00 85 1019.7
20260506123507 12 308 0.0 3.2 0.00 0.00 0.00 84 1019.5
20260506123031 12 308 0.0 3.2 0.00 0.00 0.00 84 1019.6
20260506122508 12 308 0.0 3.2 0.00 0.00 0.00 84 1019.5
20260506122007 12 308 0.0 3.2 0.00 0.00 0.00 84 1019.5
20260506121531 12 308 0.0 4.8 0.00 0.00 0.00 84 1019.5
20260506121008 12 308 0.0 4.8 0.00 0.00 0.00 84 1019.5
20260506120511 12 290 1.6 4.8 0.00 0.00 0.00 84 1019.5
20260506120028 12 340 0.0 4.8 0.00 0.00 0.00 84 1019.5
20260506115511 12 340 0.0 4.8 0.00 0.00 0.00 84 1019.5
20260506115007 12 340 0.0 4.8 0.00 0.00 0.00 84 1019.5
20260506114533 12 297 1.6 4.8 0.00 0.00 0.00 84 1019.4
20260506114005 12 322 1.6 4.8 0.00 0.00 0.00 84 1019.4
20260506113504 12 281 1.6 6.4 0.00 0.00 0.00 84 1019.4
20260506113026 12 290 0.0 6.4 0.00 0.00 0.00 84 1019.3
20260506112503 12 326 1.6 6.4 0.00 0.00 0.00 84 1019.3
20260506112003 12 329 1.6 6.4 0.00 0.00 0.00 84 1019.3
20260506111522 12 318 3.2 6.4 0.00 0.00 0.00 84 1019.1
20260506111004 12 296 1.6 4.8 0.00 0.00 0.00 84 1019.1
20260506110504 12 301 1.6 4.8 0.00 0.00 0.00 84 1019.0
20260506110021 12 285 1.6 4.8 0.00 0.00 0.00 84 1019.0
20260506105503 12 302 1.6 6.4 0.00 0.00 0.00 84 1019.0
20260506105005 12 290 0.0 6.4 0.00 0.00 0.00 84 1019.0
20260506104518 12 272 1.6 6.4 0.00 0.00 0.00 83 1019.0
20260506104003 12 286 1.6 4.8 0.00 0.00 0.00 83 1019.0
20260506103504 12 286 1.6 8.0 0.00 0.00 0.00 83 1019.0
20260506103014 12 308 3.2 8.0 0.00 0.00 0.00 83 1019.0
20260506102504 12 276 1.6 8.0 0.00 0.00 0.00 83 1019.0
20260506102002 12 307 1.6 4.8 0.00 0.00 0.00 84 1019.0
20260506101520 12 289 1.6 6.4 0.00 0.00 0.00 84 1018.9
20260506101002 12 282 1.6 6.4 0.00 0.00 0.00 83 1019.0
20260506100503 12 277 1.6 4.8 0.00 0.03 0.00 83 1018.9
20260506100008 12 322 1.6 6.4 0.00 0.03 0.00 83 1019.0
20260506095506 12 267 1.6 6.4 0.00 0.03 0.00 84 1018.9
20260506095004 12 321 0.0 4.8 0.00 0.03 0.00 84 1018.9
20260506094514 12 348 0.0 9.7 0.00 0.03 0.00 83 1018.9
20260506094004 12 315 1.6 9.7 0.00 0.03 0.00 83 1018.8
20260506093503 12 304 1.6 6.4 0.00 0.03 0.00 84 1018.9
20260506093029 12 304 1.6 8.0 0.00 0.03 0.00 84 1018.9
20260506092504 12 298 1.6 8.0 0.00 0.03 0.00 84 1018.9
20260506092005 12 340 3.2 8.0 0.00 0.03 0.00 84 1018.9
20260506091520 12 277 1.6 8.0 0.00 0.03 0.00 84 1018.9
20260506091005 12 328 3.2 6.4 0.00 0.03 0.00 84 1018.9
20260506090504 12 325 1.6 8.0 0.00 0.03 0.00 84 1019.0
20260506090016 12 286 4.8 8.0 0.00 0.03 0.00 85 1018.9
20260506085504 12 306 3.2 11.3 0.00 0.03 0.00 85 1019.0
20260506085003 12 300 4.8 11.3 0.00 0.03 0.00 85 1019.1
20260506084514 11 307 3.2 11.3 0.00 0.03 0.00 86 1019.0
20260506084004 11 15 4.8 12.9 0.00 0.03 0.00 86 1018.9
20260506083508 11 320 3.2 12.9 0.00 0.03 0.00 87 1018.9
20260506083010 11 352 1.6 6.4 0.00 0.03 0.00 89 1019.0
20260506082503 11 341 0.0 1.6 0.00 0.03 0.00 89 1018.9
20260506082011 10 341 0.0 3.2 0.00 0.03 0.00 89 1018.9
20260506081515 10 341 0.0 3.2 0.00 0.05 0.00 89 1018.9
20260506081004 10 341 0.0 1.6 0.00 0.05 0.00 89 1019.0
20260506080506 10 341 0.0 1.6 0.00 0.08 0.00 89 1018.9
20260506073505 10 341 0.0 1.6 0.00 0.15 0.00 88 1018.8
20260506073035 11 341 0.0 1.6 0.00 0.15 0.00 87 1018.8
20260506072507 11 341 0.0 1.6 0.00 0.15 0.00 88 1018.8
20260506072003 11 341 0.0 1.6 0.00 0.15 0.00 87 1018.7
20260506071514 11 341 0.0 1.6 0.00 0.15 0.00 87 1018.6
20260506071008 11 341 0.0 1.6 0.00 0.15 0.00 86 1018.6
20260506070506 11 341 0.0 3.2 0.00 0.18 0.00 86 1018.5
20260506062505 11 341 1.6 6.4 0.00 0.28 0.18 83 1018.2
20260506062006 12 315 1.6 6.4 0.00 0.28 0.18 83 1018.2
20260506061513 12 174 0.0 11.3 0.00 0.28 0.18 83 1018.1
20260506061007 12 315 0.0 11.3 0.00 0.28 0.18 83 1018.1
20260506060504 12 281 1.6 9.7 0.00 0.28 0.18 83 1018.0
20260506051004 12 259 0.0 8.0 0.00 0.30 0.18 82 1017.6
20260506050506 12 284 0.0 17.7 0.00 0.30 0.18 82 1017.6
20260506045008 13 307 1.6 6.4 0.00 0.33 0.18 81 1017.6
20260506044548 13 346 1.6 9.7 0.00 0.33 0.18 81 1017.5
20260506044003 13 275 1.6 9.7 0.00 0.36 0.18 80 1017.4
20260506043506 13 302 1.6 9.7 0.00 0.36 0.18 80 1017.3
20260506043021 13 325 3.2 9.7 0.00 0.36 0.18 80 1017.3
20260506042509 13 307 0.0 8.0 0.00 0.36 0.18 80 1017.2
20260506042007 13 281 0.0 9.7 0.00 0.36 0.18 79 1017.1
20260506041517 13 325 3.2 16.1 0.00 0.36 0.18 79 1017.0
20260506041012 13 265 1.6 16.1 0.00 0.36 0.18 78 1017.0
20260506040505 13 279 1.6 12.9 0.00 0.36 0.18 78 1016.8
20260506040020 13 316 1.6 14.5 0.00 0.36 0.18 78 1016.7
20260506035505 13 292 6.4 14.5 0.00 0.36 0.18 77 1016.7
20260506035006 13 273 3.2 9.7 0.00 0.36 0.18 77 1016.7
20260506034532 13 252 4.8 11.3 0.00 0.36 0.18 77 1016.7
20260506034008 13 296 4.8 12.9 0.00 0.36 0.18 77 1016.6
20260506033505 13 313 3.2 12.9 0.00 0.36 0.18 76 1016.6
20260506033032 14 309 3.2 12.9 0.00 0.36 0.18 77 1016.6
20260506032507 14 261 1.6 12.9 0.00 0.36 0.18 76 1016.5
20260506032010 14 309 1.6 14.5 0.00 0.36 0.18 76 1016.3
20260506031526 14 163 3.2 14.5 0.00 0.36 0.18 76 1016.2
20260506031004 14 285 4.8 12.9 0.00 0.36 0.18 76 1016.3
20260506030505 14 291 4.8 12.9 0.00 0.36 0.18 76 1016.3
20260506030021 14 166 3.2 12.9 0.00 0.36 0.18 76 1016.3
20260506025504 14 333 3.2 17.7 0.00 0.36 0.18 76 1016.2
20260506025004 14 225 3.2 17.7 0.00 0.36 0.18 76 1016.2
20260506024522 14 266 4.8 11.3 0.00 0.36 0.18 76 1016.1
20260506024009 14 239 1.6 14.5 0.00 0.36 0.18 76 1016.1
20260506023511 15 329 3.2 14.5 0.00 0.36 0.18 76 1016.0
20260506023020 15 331 6.4 14.5 0.00 0.36 0.18 75 1016.0
20260506022509 15 264 4.8 14.5 0.00 0.36 0.18 76 1015.9
20260506022011 15 109 1.6 12.9 0.00 0.36 0.18 76 1015.8
20260506021513 15 273 4.8 12.9 0.00 0.36 0.18 75 1015.7
20260506021007 15 290 1.6 14.5 0.00 0.36 0.18 76 1015.7
20260506020508 15 313 3.2 14.5 0.00 0.36 0.18 75 1015.7
20260506020028 15 263 4.8 12.9 0.00 0.36 0.18 74 1015.6
20260506015504 15 315 4.8 12.9 0.00 0.36 0.18 74 1015.6
20260506015008 15 267 1.6 11.3 0.00 0.36 0.18 74 1015.5
20260506014530 15 349 0.0 11.3 0.00 0.36 0.18 75 1015.5
20260506014004 15 32 1.6 14.5 0.00 0.36 0.18 74 1015.4
20260506013506 16 189 3.2 14.5 0.00 0.36 0.18 73 1015.5
20260506013026 16 173 1.6 8.0 0.00 0.36 0.18 74 1015.4
20260506012507 16 287 0.0 9.7 0.00 0.36 0.18 73 1015.4
20260506012007 16 223 1.6 12.9 0.00 0.36 0.18 73 1015.5
20260506011526 16 321 1.6 14.5 0.00 0.36 0.18 73 1015.5
20260506011009 17 272 6.4 14.5 0.00 0.36 0.18 72 1015.5
20260506010504 17 173 3.2 14.5 0.00 0.36 0.18 72 1015.5
20260506010024 16 317 3.2 14.5 0.00 0.36 0.18 73 1015.5
20260506005503 16 178 1.6 6.4 0.00 0.36 0.18 72 1015.4
20260506005010 17 305 1.6 12.9 0.00 0.36 0.18 74 1015.4
20260506004531 17 165 1.6 12.9 0.00 0.36 0.18 72 1015.3
20260506004003 17 308 1.6 9.7 0.00 0.36 0.18 73 1015.4
20260506003503 17 221 1.6 8.0 0.00 0.36 0.18 73 1015.4
20260506003022 17 9 1.6 12.9 0.00 0.36 0.18 71 1015.4
20260506002505 17 178 0.0 12.9 0.00 0.36 0.18 72 1015.3
20260506002003 17 190 1.6 12.9 0.00 0.36 0.18 72 1015.3
20260506001510 17 188 3.2 12.9 0.00 0.36 0.18 74 1015.3
20260506001004 16 160 1.6 16.1 0.00 0.36 0.18 72 1015.3
20260506000503 16 211 3.2 16.1 0.00 0.36 0.18 74 1015.3
20260506000005 16 208 4.8 12.9 0.00 0.36 0.18 74 1015.3
20260505235504 16 177 4.8 9.7 0.00 0.36 0.18 74 1015.3
20260505235004 16 178 1.6 9.7 0.00 0.36 0.18 74 1015.3
20260505234508 16 200 1.6 9.7 0.00 0.36 0.18 75 1015.2
20260505234004 16 184 0.0 8.0 0.00 0.36 0.18 75 1015.4
20260505233505 16 159 1.6 8.0 0.00 0.36 0.18 74 1015.4
20260505233007 16 278 0.0 6.4 0.00 0.36 0.18 76 1015.4
20260505232502 16 208 1.6 9.7 0.00 0.36 0.18 75 1015.4
20260505232003 16 177 3.2 9.7 0.00 0.36 0.18 74 1015.4
20260505231509 16 192 3.2 19.3 0.00 0.36 0.18 75 1015.4
20260505231003 16 184 6.4 19.3 0.00 0.36 0.18 74 1015.4
20260505230503 16 183 8.0 16.1 0.00 0.36 0.18 74 1015.4
20260505230006 16 218 3.2 12.9 0.00 0.36 0.18 75 1015.4
20260505225503 16 230 4.8 11.3 0.00 0.36 0.18 74 1015.4
20260505225004 16 175 1.6 11.3 0.00 0.36 0.18 74 1015.3
20260505224518 16 201 3.2 11.3 0.00 0.36 0.18 74 1015.4
20260505224003 16 199 4.8 11.3 0.00 0.36 0.18 74 1015.4
20260505223505 16 179 1.6 9.7 0.00 0.36 0.18 75 1015.4
20260505223012 16 211 3.2 16.1 0.00 0.36 0.18 74 1015.3
20260505222503 16 157 3.2 16.1 0.00 0.36 0.18 75 1015.4
20260505222003 16 207 3.2 11.3 0.00 0.36 0.18 74 1015.5
20260505221507 16 209 4.8 16.1 0.00 0.36 0.18 75 1015.5
20260505221003 16 189 4.8 16.1 0.00 0.36 0.18 77 1015.6
20260505220508 15 170 1.6 9.7 0.00 0.36 0.18 77 1015.6
20260505220013 16 126 0.0 8.0 0.00 0.36 0.18 75 1015.6
20260505215503 16 184 1.6 9.7 0.00 0.36 0.18 74 1015.7
20260505215007 16 5 3.2 9.7 0.00 0.36 0.18 74 1015.6
20260505214521 16 211 0.0 9.7 0.00 0.36 0.18 76 1015.6
20260505214003 16 176 3.2 9.7 0.00 0.36 0.18 75 1015.6
20260505213503 16 284 1.6 6.4 0.00 0.36 0.18 75 1015.7
20260505213008 16 144 1.6 9.7 0.00 0.36 0.18 77 1015.7
20260505212505 16 105 3.2 16.1 0.00 0.36 0.18 78 1015.8
20260505212005 16 176 4.8 16.1 0.00 0.36 0.18 76 1015.8
20260505211506 16 184 6.4 12.9 0.00 0.36 0.18 76 1015.8
20260505211006 16 202 4.8 11.3 0.00 0.36 0.18 77 1015.8
20260505210504 15 179 3.2 11.3 0.00 0.36 0.18 78 1015.8
20260505210015 15 215 3.2 12.9 0.00 0.36 0.18 79 1015.9
20260505205508 15 158 1.6 12.9 0.00 0.36 0.18 80 1015.9
20260505205006 15 213 3.2 12.9 0.00 0.36 0.18 80 1015.9
20260505204511 14 174 3.2 12.9 0.00 0.36 0.18 80 1016.0
20260505204008 15 205 0.0 6.4 0.00 0.36 0.18 80 1016.0
20260505203504 15 103 0.0 11.3 0.00 0.36 0.18 80 1016.1
20260505203009 15 178 0.0 11.3 0.00 0.36 0.18 79 1016.1
20260505202503 14 282 1.6 8.0 0.00 0.36 0.18 79 1016.0
20260505202010 14 198 1.6 8.0 0.00 0.36 0.18 79 1016.1